Regional Weather Roundup
Issued by NWS

Home | Current Version | Previous Version | Graphics & Text | Print | Product List | Glossary On
Versions: 1 2 3 4 5 6 7 8 9 10 11 12 13 14 15 16 17 18 19 20 21 22 23 24 25 26 27 28 29 30 31 32 33 34 35 36 37 38 39 40 41 42 43 44 45 46 47 48 49 50
000
ASUS43 KMKX 291100
RWRWI

WISCONSIN REGIONAL WEATHER ROUNDUP
NATIONAL WEATHER SERVICE MILWAUKEE/SULLIVAN WI
600 AM CDT THU JUN 29 2017

NOTE: "FAIR" INDICATES FEW OR NO CLOUDS BELOW 12,000 FEET WITH NO
SIGNIFICANT WEATHER AND/OR OBSTRUCTIONS TO VISIBILITY.

WIZ001-002-006>008-014>016-023>028-291200-
NORTHWEST WISCONSIN

CITY           SKY/WX    TMP DP  RH WIND       PRES   REMARKS
SUPERIOR ARPT  NOT AVBL
ASHLAND        LGT RAIN  55  53  93 SW8       29.56R
HAYWARD        CLOUDY    60  58  92 W6        29.61R
SIREN          CLOUDY    61  59  92 W7        29.65R
CUMBERLAND     CLOUDY    61  55  82 W9        29.64R
RICE LAKE      CLOUDY    62  59  88 W7        29.64R
CHETEK         CLOUDY    62  61  95 W3        29.63S
LADYSMITH      CLOUDY    63  61  94 W9        29.63R
EAU CLAIRE     NOT AVBL
MENOMONIE      CLOUDY    64  60  85 W6        29.64R
NEW RICHMOND   CLOUDY    63  58  84 W8        29.66R
OSCEOLA        CLOUDY    64  64 100 W7        29.68R
$$

WIZ003>005-009-010-017-018-291200-
NORTH CENTRAL WISCONSIN

CITY           SKY/WX    TMP DP  RH WIND       PRES   REMARKS
MANITOWISH WTR DRIZZLE   61  61 100 W10       29.56S
ARBOR VITAE    HVY RAIN  63  62  95 SW8       29.57S
WOODRUFF       HVY RAIN  63  62  95 SW8       29.57S
RHINELANDER    CLOUDY    63  63 100 SW12      29.60S
EAGLE RIVER    CLOUDY    63  63 100 SW7       29.58R
LAND O LAKES   CLOUDY    64  63  97 S3        29.58S
PHILLIPS       RAIN      60  60 100 W8        29.59R
TOMAHAWK       NOT AVBL
MEDFORD        CLOUDY    62  60  93 W7        29.63R
MERRILL        CLOUDY    64  64  98 SW6       29.62R
$$

WIZ029-030-035-036-043>047-291200-
CENTRAL WISCONSIN

CITY           SKY/WX    TMP DP  RH WIND       PRES   REMARKS
WAUSAU         CLOUDY    64  63  96 W7        29.61F
MOSINEE        CLOUDY    64  64 100 SW7       29.64F
MARSHFIELD     CLOUDY    64  61  90 W9        29.63S
STEVENS POINT  CLOUDY    63  63 100 SW7       29.64F
WAUPACA        PTCLDY    66  66  98 SW7       29.64S
WAUTOMA        PTCLDY    63  63 100 SW5       29.66R
WISC RAPIDS    CLOUDY    65  63  93 SW10      29.66S
CAMP DOUGLAS   PTCLDY    64  64  97 SW7       29.66R
$$

WIZ011>013-019>022-031-037>040-048>050-291200-
NORTHEAST WISCONSIN

CITY           SKY/WX    TMP DP  RH WIND       PRES   REMARKS
ANTIGO         CLOUDY    64  63  98 SW9       29.62S
SHAWANO        CLOUDY    66  64  94 SW6       29.62S
OCONTO         CLOUDY    67  64  89 SW5       29.61S
STURGEON BAY     N/A     62  60  93 S6        29.64R
GREEN BAY      CLEAR     67  66  97 S10       29.64R
MANITOWOC      NOT AVBL
APPLETON       PTCLDY    64  64 100 SW9       29.63S
CLINTONVILLE   CLOUDY    64  63  94 SW9       29.63S
OSHKOSH        CLEAR     66  63  90 SW9       29.64R
$$

WIZ032>034-041-042-053>061-291200-
SOUTHWEST WISCONSIN

CITY           SKY/WX    TMP DP  RH WIND       PRES   REMARKS
LA CROSSE      CLEAR     64  62  93 W6        29.68R
SPARTA         CLEAR     61  61 100 SW3       29.67S
VIROQUA        PTCLDY    62  62 100 SW7       29.70R
BOSCOBEL       CLOUDY    67  65  93 SW5       29.71R
PRAIRIE DU CHI CLOUDY    66  64  90 CALM      29.71R
PLATTEVILLE    MOCLDY    67  67  99 S9        29.74R
$$

WIZ056-057-062-063-064-067-068-291200-
SOUTH CENTRAL WISCONSIN

CITY           SKY/WX    TMP DP  RH WIND       PRES   REMARKS
REEDSBURG      CLEAR     65  65 100 SW10      29.68R
BARABOO/DELLS  CLEAR     65  62  90 SW8       29.68S
LONE ROCK      MOCLDY    68  64  87 SW7       29.70R
MINERAL POINT  CLOUDY    68  68 100 SW16      29.74R
MADISON        MOCLDY    69  66  90 SW9       29.70R
MIDDLETON      PTCLDY    69  67  93 SW10G21   29.70R
WATERTOWN      CLOUDY    67  67 100 SW10      29.69R
MONROE         CLOUDY    68  63  83 SW21G26   29.74R
JANESVILLE     CLOUDY    66  66 100 W14       29.71R
$$

WIZ051-052-058>065-066-070>072-291200-
SOUTHEAST WISCONSIN

CITY           SKY/WX    TMP DP  RH WIND       PRES   REMARKS
MILWAUKEE      MOCLDY    68  65  90 SW15      29.69R
WAUKESHA       CLOUDY    63  61  94 S6        29.70S
MILWAUKEE/TIMM MOCLDY    64  61  88 SW9       29.69S
RACINE         MOCLDY    68  64  87 SW9       29.72R
KENOSHA        CLOUDY    67  63  87 SW8       29.72R
FOND DU LAC    CLEAR     66  62  87 SW7       29.65S
SHEBOYGAN      CLEAR     64  64 100 S9        29.66R
WEST BEND      CLOUDY    64  63  94 SW8G16    29.67R
JUNEAU         PTCLDY    65  63  94 SW9       29.69R
$$

LSZ147-162-291200-
LAKE SUPERIOR

STATION/POSITION TIME  TEMP    WIND        PRES    WAVE
                       AIR SEA DIR/SP/G            HT/PER
                 (UTC) (F)     (DEG/KT/KT) (MB)    (FT/S)
W MID LAKE BUOY  0950   44 39   40/ 14/ 17  999.3R   3/ 5
DEVILS ISLAND    1000   48      40/ 11/ 12  999.8R
SAXON HARBOR     1030   58     200/  7/ 10 1000.3R
$$

LMZ867-665-643>646-291200-
LAKE MICHIGAN

STATION/POSITION TIME  TEMP    WIND        PRES    WAVE
                       AIR SEA DIR/SP/G            HT/PER
                 (UTC) (F)     (DEG/KT/KT) (MB)    (FT/S)
CHAMBERS ISLAND  1040   64     160/  6/  9 1002.7R
S GREEN BAY BUOY 1030   67     210/ 12/ 16 1003.0R
N MID LAKE BUOY  0950   57 53  190/ 19/ 23 1003.5F   6/ 7
NORTHPORT PIER   1040   58     160/  8/ 12 1003.4R
KEWAUNEE LAKESHO 1030   55     190/  7/  8 1003.4S
SHEBOYGAN LAKESH 1000   58     180/ 12/ 13 1004.1R
PORT WASHINGTON  1040   57     180/  5/  7 1005.8R
ATWATER BUOY     0909   55 44  170/ 12/ 14 1005.4R
MILWAUKEE LAKESH 1030   67     220/  9/ 12   N/A
S MID LAKE BUOY  0950   65 60  160/ 17/ 27 1005.5F   3/ 4
KENOSHA   LAKESH 1000   63     190/  8/ 10 1005.8
$$

TC  - TEMPERATURE IN CELSIUS
VSB - VISIBILITY IN STATUTE MILES
WCI - WIND CHILL INDEX
HX  - HEAT INDEX





USA.gov is the U.S. government's official web portal to all federal, state and local government web resources and services.